FW7284 Weather Reports


time (UTC)temp
C
wind
direction
speed
KPH
gust
KPH
rain 1hr
cm
rain 24hr
cm
rain mn
cm
humidity
%
barometer
mb
20260508023030 9 268 8.0 16.1 0.00 2.29 2.29 92 1001.5
20260508021532 9 252 8.0 19.3 0.00 2.29 2.29 92 1001.7
20260508020027 9 235 8.0 17.7 0.00 2.29 2.29 92 1001.7
20260508014529 10 254 4.8 16.1 0.00 2.29 2.29 92 1001.8
20260508013030 10 271 4.8 12.9 0.00 2.29 2.29 92 1001.7
20260508011532 10 251 6.4 11.3 0.00 2.29 2.29 92 1001.5
20260508010030 10 220 3.2 9.7 0.00 2.29 2.29 92 1001.9
20260508004531 9 222 3.2 9.7 0.00 2.29 2.29 91 1001.8
20260508003028 9 221 3.2 9.7 0.00 2.29 2.29 91 1001.8
20260508001530 9 190 3.2 14.5 0.00 2.29 2.29 91 1001.9
20260508000029 9 212 3.2 16.1 0.00 2.29 2.29 91 1002.0
20260507234542 10 175 4.8 16.1 0.00 2.29 2.29 91 1002.1
20260507233030 10 189 4.8 12.9 0.00 2.29 2.29 91 1001.9
20260507231528 10 176 6.4 14.5 0.00 2.29 2.29 91 1002.4
20260507230030 10 213 4.8 19.3 0.00 2.29 2.29 91 1002.2
20260507224530 10 171 8.0 24.1 0.00 2.29 2.29 91 1002.5
20260507223030 10 253 9.7 22.5 0.00 2.29 2.29 91 1002.4
20260507221534 10 213 6.4 17.7 0.00 2.29 2.29 91 1002.6
20260507220036 10 196 11.3 27.4 0.00 2.29 2.29 91 1002.5
20260507214528 10 209 12.9 24.1 0.05 2.29 2.29 91 1002.5
20260507213031 9 210 9.7 25.7 0.25 2.29 2.29 91 1002.1
20260507211534 9 173 16.1 33.8 0.46 2.29 2.29 90 1001.6
20260507210033 10 180 11.3 30.6 0.64 2.29 2.29 90 1002.3
20260507204531 10 202 8.0 17.7 0.89 2.24 2.24 90 1003.1
20260507203030 10 193 9.7 22.5 1.09 2.03 2.03 90 1003.4
20260507201528 10 177 4.8 16.1 1.07 1.78 1.78 90 1004.0
20260507200027 10 231 8.0 19.3 1.02 1.60 1.60 90 1004.7
20260507194545 11 239 12.9 24.1 0.81 1.30 1.30 90 1004.9
20260507193029 11 208 11.3 27.4 0.64 0.91 0.91 89 1004.7
20260507191530 11 214 12.9 32.2 0.46 0.71 0.71 89 1004.6
20260507190040 11 185 12.9 38.6 0.36 0.58 0.58 89 1004.6
20260507184541 11 206 14.5 37.0 0.25 0.46 0.46 88 1004.8
20260507183030 12 190 12.9 33.8 0.05 0.28 0.28 87 1005.2
20260507181532 12 144 12.9 29.0 0.00 0.23 0.23 86 1004.8
20260507180030 13 156 12.9 29.0 0.00 0.20 0.20 85 1004.8
20260507174533 13 178 9.7 25.7 0.00 0.20 0.20 85 1004.9
20260507173042 13 183 9.7 20.9 0.00 0.20 0.20 86 1005.2
20260507171530 12 203 14.5 37.0 0.00 0.20 0.20 86 1005.5
20260507170030 12 179 14.5 41.8 0.00 0.20 0.20 86 1005.9
20260507164541 12 178 17.7 41.8 0.00 0.20 0.20 86 1006.3
20260507163030 12 162 14.5 45.1 0.00 0.20 0.20 85 1006.5
20260507161539 13 162 14.5 29.0 0.00 0.20 0.20 85 1007.1
20260507160030 13 165 16.1 43.5 0.00 0.20 0.20 86 1007.4
20260507154528 13 155 17.7 35.4 0.00 0.20 0.20 87 1007.5
20260507153039 13 163 16.1 32.2 0.00 0.20 0.20 86 1008.0
20260507151532 12 197 16.1 45.1 0.00 0.20 0.20 86 1008.6
20260507150033 12 204 14.5 33.8 0.00 0.20 0.20 87 1008.5
20260507144535 12 192 14.5 33.8 0.00 0.20 0.20 88 1009.0
20260507143028 12 206 12.9 32.2 0.00 0.20 0.20 88 1009.5
20260507141532 12 171 14.5 43.5 0.00 0.20 0.20 88 1009.6
20260507140030 12 218 16.1 33.8 0.00 0.20 0.20 88 1009.9
20260507134528 12 150 16.1 43.5 0.00 0.20 0.20 88 1009.9
20260507133029 12 178 17.7 41.8 0.00 0.20 0.20 88 1010.2
20260507131530 12 161 11.3 33.8 0.00 0.20 0.20 89 1010.0
20260507130038 12 194 11.3 33.8 0.00 0.20 0.20 90 1009.5
20260507124537 12 202 12.9 40.2 0.00 0.20 0.20 90 1009.8
20260507123028 12 180 19.3 46.7 0.00 0.20 0.20 90 1010.2
20260507121528 12 169 19.3 43.5 0.00 0.20 0.20 90 1010.7
20260507120030 11 161 12.9 33.8 0.00 0.20 0.20 90 1010.7
20260507114552 11 169 17.7 43.5 0.00 0.20 0.20 90 1011.6
20260507113050 11 157 19.3 46.7 0.00 0.20 0.20 91 1011.6
20260507111536 11 225 11.3 46.7 0.00 0.20 0.20 91 1011.6
20260507110030 11 170 14.5 37.0 0.00 0.20 0.20 91 1011.5
20260507104539 11 172 16.1 38.6 0.00 0.20 0.20 91 1011.7
20260507103027 10 196 12.9 35.4 0.00 0.20 0.20 91 1012.2
20260507101530 11 194 9.7 27.4 0.00 0.20 0.20 91 1012.2
20260507100029 11 177 9.7 20.9 0.00 0.20 0.20 91 1012.0
20260507094532 11 157 9.7 20.9 0.08 0.18 0.18 91 1012.5
20260507093034 11 184 12.9 25.7 0.13 0.18 0.18 91 1012.8
20260507091528 11 159 9.7 19.3 0.15 0.18 0.18 91 1012.5
20260507090027 11 162 8.0 19.3 0.18 0.18 0.18 91 1012.7
20260507084539 10 206 9.7 25.7 0.08 0.08 0.08 90 1012.7
20260507083028 10 187 11.3 24.1 0.05 0.05 0.05 90 1012.5
20260507081535 11 164 9.7 22.5 0.03 0.03 0.03 90 1012.7
20260507080029 11 160 6.4 25.7 0.00 0.00 0.00 90 1013.1
20260507074532 11 185 12.9 22.5 0.00 0.00 0.00 90 1013.6
20260507073030 11 202 9.7 30.6 0.00 0.00 0.00 90 1013.6
20260507071528 11 181 8.0 19.3 0.00 0.00 0.00 89 1013.8
20260507070030 11 187 8.0 22.5 0.00 0.00 0.00 89 1013.8
20260507064530 11 217 8.0 17.7 0.00 0.00 0.00 89 1014.0
20260507063028 11 210 6.4 16.1 0.00 0.00 0.00 89 1014.2
20260507061529 11 217 8.0 17.7 0.00 0.00 0.00 89 1014.3
20260507060028 11 204 8.0 19.3 0.00 0.00 0.00 89 1014.7
20260507054530 11 189 11.3 24.1 0.00 0.00 0.00 89 1014.7
20260507053028 11 240 11.3 27.4 0.00 0.00 0.00 89 1014.8
20260507051528 11 201 11.3 25.7 0.00 0.00 0.00 89 1015.2
20260507050030 11 220 11.3 30.6 0.00 0.00 0.00 89 1015.6
20260507044532 11 189 11.3 24.1 0.00 0.00 0.00 89 1015.7
20260507043030 11 223 9.7 25.7 0.00 0.00 0.00 89 1016.2
20260507041528 11 221 11.3 27.4 0.00 0.00 0.00 89 1016.3
20260507040030 11 245 8.0 16.1 0.00 0.00 0.00 88 1016.6
20260507034535 11 234 8.0 22.5 0.00 0.00 0.00 88 1016.7
20260507033028 11 263 9.7 22.5 0.00 0.00 0.00 88 1017.1
20260507031529 11 264 9.7 16.1 0.00 0.00 0.00 87 1017.2
20260507030028 12 200 8.0 24.1 0.00 0.00 0.00 87 1017.1
20260507024530 12 185 11.3 25.7 0.00 0.00 0.00 87 1017.3